Retour au catalogue

STARLINK-36253

ActifCommunicationsSSO
NORAD 68028·PAYLOAD·🇺🇸 United States

Lancé Mar 1, 2026 depuis Vandenberg Space Force Base

Loading…

Prochains Passages (prochaines 24 heures)

TLE

FraisSource: CelesTrak SupGP

Époque: Sep 15, 2026, 02:45 UTC

1 68028C 26040P   26258.11506944  .00158520  00000+0  26893-2 0  2587
2 68028  97.2807 205.6232 0006702  96.8461 208.2117 15.51421498    10

Suivez STARLINK-36253 en temps réel avec AllMySat

Download on the App Store